Location: Walnut
(34.0203°N, 117.8653°W)
Time: 16:21:30
(UTC+00:00)

Daily predictions for brighter satellites

Satellite Brightness Start Highest point End
(mag) Time Altitude Azimuth Time Altitude Azimuth Time Altitude Azimuth
Unknown 4.2 12:03:40 37° WNW 12:04:08 39° NW 12:08:02 10° NNE
Unknown 4.5 12:04:46 31° NW 12:05:08 32° NW 12:08:47 10° NNE
Unknown 4.3 12:05:11 36° WNW 12:05:44 38° NW 12:09:38 10° NNE
Unknown 4.2 12:05:36 38° WNW 12:06:12 41° NW 12:10:09 10° NNE
NOSS 3-2 (C) 4.2 12:05:49 28° WNW 12:07:25 32° NW 12:13:04 10° NNE
Meteor 1-31 Rocket 3.7 12:04:17 10° NNE 12:08:05 49° E 12:11:50 10° S
Unknown 4.2 12:08:05 37° WNW 12:08:50 40° NW 12:12:45 10° NNE
Cosmos 1707 Rocket 4.2 12:11:38 33° W 12:11:48 34° W 12:15:50 10° NNW
Cosmos 1656 Rocket 3.6 12:07:32 17° SSW 12:11:58 82° WNW 12:17:41 10° NNE
Unknown 4.3 12:11:18 33° WNW 12:12:10 38° NW 12:16:03 10° NNE
Unknown 4.4 12:12:52 32° WNW 12:13:49 36° NW 12:17:41 10° NNE
MSX 3.7 12:08:24 10° N 12:14:09 74° WNW 12:19:51 10° SSW
Aureole 2 Rocket 4.0 12:12:49 10° SSE 12:15:15 27° ESE 12:17:37 10° NE
Unknown 4.5 12:14:28 30° WNW 12:15:30 35° NW 12:19:19 10° NNE
CZ-4B R/B 4.1 12:12:42 10° NNE 12:16:21 60° E 12:19:55 10° S
ATLAS 3B R/B 3.1 12:15:07 26° WSW 12:18:17 40° NW 12:24:27 10° NNE
SJ-6F 4.3 12:16:49 10° N 12:21:00 78° WNW 12:25:10 10° SSW
Chunghua 1 4.4 12:20:28 35° W 12:21:55 83° N 12:25:38 10° E
Cosmos 44 3.5 12:20:17 23° SW 12:23:21 57° WNW 12:28:13 10° NNE
COSMOS 2487 3.0 12:20:24 10° N 12:23:49 58° ENE 12:27:14 10° SSE
H-2A R/B 3.0 12:21:03 10° N 12:24:28 31° WNW 12:25:21 28° W
Cosmos 1733 Rocket 3.0 12:25:58 10° NNW 12:30:24 70° W 12:34:49 10° S
IDEFIX/ARIANE 42P 3.4 12:26:55 10° N 12:31:28 30° WNW 12:34:38 17° WSW
Cosmos 1484 Rocket 4.2 12:33:31 10° NNE 12:37:03 39° E 12:40:32 10° S
ATLAS 3B CENTAUR R/B 4.5 12:40:27 10° SW 12:40:27 10° SW 12:41:32 10° SW
USA 81 4.4 12:37:22 10° SSW 12:42:22 44° W 12:47:24 10° N
PAYLOAD A 4.2 12:37:53 10° N 12:42:22 42° WNW 12:46:46 10° SW
Cosmos 1125 Rocket 4.1 12:38:47 10° NW 12:43:30 33° W 12:48:10 10° SSW
SeaSat 1 4.2 12:43:19 10° NNW 12:46:01 15° NW 12:48:09 12° W
Cosmos 1315 Rocket 3.0 12:45:32 10° SSW 12:49:32 52° W 12:53:34 10° N
Meteor PRIRODA 3.6 12:47:08 10° N 12:50:47 67° WNW 12:54:26 10° SSW
Centaur AC-119 4.2 12:47:45 13° WSW 12:51:06 45° S 13:04:07 10° ESE
Cosmos 1943 Rocket 3.9 12:48:56 11° WNW 12:51:07 13° NW 12:53:38 10° NNW
Cosmos 2242 Rocket 3.9 12:47:33 10° SSW 12:51:55 46° W 12:56:18 10° N
Helios 1A Rocket 3.5 12:48:37 10° NNE 12:52:39 60° ESE 12:56:40 10° S
ISS -3.0 12:50:32 10° WNW 12:53:36 34° SW 12:56:38 10° SSE
Cosmos 1340 2.8 12:50:02 10° N 12:53:49 77° E 12:57:35 10° SSE
CZ-2C R/B 2.8 12:49:58 10° N 12:54:33 41° WNW 12:59:14 10° SW
ASTRO E2 3.8 12:51:33 10° SW 12:55:12 34° SSE 12:58:51 10° E
OAO 2 Rocket 4.3 12:51:46 10° SW 12:56:18 38° SSE 13:00:52 10° E
SJ-12 4.5 12:54:19 10° NNE 12:58:21 62° E 13:02:20 10° S
Meteor 1-5 Rocket 4.3 12:54:06 10° NNW 12:59:21 51° W 13:04:45 10° SSW
Cosmos 2266 Rocket 4.0 12:57:28 10° S 13:03:37 90° SE 13:09:44 10° N
CENTAUR R/B 3.9 12:59:58 10° W 13:04:27 21° NW 13:09:24 10° N
Intelsat 5-1 Rocket 4.2 12:53:20 10° WSW 13:04:49 37° S 13:09:23 10° ESE
Centaur D-1AR AC-36 4.3 12:59:50 10° WSW 13:05:45 39° S 22:26:41 10° SE
Cosmos 1703 Rocket 3.6 13:01:40 10° SSW 13:06:05 63° W 13:10:30 10° N
CZ-4B R/B 3.8 13:03:17 10° NNE 13:08:46 65° ESE 13:14:08 10° S
Atlas Centaur 2 3.2 13:02:21 10° W 13:09:52 65° S 13:18:19 10° ESE
